Change the Weather History Date:

Saturday, May 11, 2013

  Actual Average Record
Temperature  
Mean Temperature 50 °F -  
Max Temperature 61 °F 70 °F 96 °F (2000)
Min Temperature 37 °F 49 °F 37 °F (2013)
Degree Days  
Heating Degree Days 14    
Moisture  
Dew Point 31 °F    
Average Humidity 46    
Maximum Humidity 100    
Minimum Humidity 25    
Precipitation  
Precipitation 0.00 in - - ()
Sea Level Pressure  
Sea Level Pressure 30.21 in    
Wind  
Wind Speed 10 mph (NNW)    
Max Wind Speed 24 mph    
Max Gust Speed 32 mph    
Visibility 10 miles    
Events      
Averages and records for this station are not official NWS values.
T = Trace of Precipitation, MM = Missing Value Source: NWS Daily Summary

Daily Weather History Graph

Daily Weather History Graph

Search for Another Location

Airport or City:

Trip Planner

Search our weather history database for the weather conditions in past years. The results will help you decide how hot, cold, wet, or windy it might be!

Date:

Astronomy

May. 11, 2013 Rise Set
Actual Time 6:09 AM CDT 8:31 PM CDT
Civil Twilight 5:38 AM CDT 9:02 PM CDT
Nautical Twilight 5:00 AM CDT 9:40 PM CDT
Astronomical Twilight 4:17 AM CDT 10:23 PM CDT
Moon 7:17 AM CDT (5/11) 10:12 PM CDT (5/11)
Length of Visible Light 15h 24m
Length of Day
14h 22m
Waxing Crescent, 3% of the Moon is Illuminated
May 11
Waxing Crescent
May 17
First Quarter
May 24
Full
May 31
Last Quarter
Jun 8
New

Hourly Weather History & Observations

Time (CDT) Temp. Windchill Dew Point Humidity Pressure Visibility Wind Dir Wind Speed Gust Speed Precip Events Conditions
12:58 AM 45.1 °F - 44.8 °F 99% 30.06 in 10.0 mi Calm Calm - N/A   Clear
1:33 AM 44.6 °F - 44.6 °F 100% 30.04 in 5.0 mi Calm Calm - N/A   Clear
1:58 AM 45.1 °F - 45.1 °F 100% 30.04 in 9.0 mi SSW 2.3 mph - N/A   Clear
2:58 AM 50.7 °F - 50.5 °F 99% 30.04 in 10.0 mi WNW 10.4 mph - N/A   Mostly Cloudy
3:58 AM 56.3 °F - 46.2 °F 69% 30.08 in 10.0 mi North 18.4 mph 29.9 mph N/A   Clear
4:58 AM 54.7 °F - 35.1 °F 48% 30.13 in 10.0 mi North 13.8 mph 20.7 mph N/A   Clear
5:58 AM 51.1 °F - 30.6 °F 45% 30.17 in 10.0 mi North 9.2 mph - N/A   Clear
6:58 AM 50.0 °F - 33.3 °F 53% 30.19 in 10.0 mi NNW 8.1 mph - N/A   Clear
7:58 AM 52.7 °F - 31.5 °F 44% 30.22 in 10.0 mi North 11.5 mph - N/A   Clear
8:58 AM 54.5 °F - 30.4 °F 40% 30.25 in 10.0 mi NNW 15.0 mph 21.9 mph N/A   Clear
9:58 AM 56.7 °F - 29.5 °F 35% 30.25 in 10.0 mi NNW 17.3 mph 31.1 mph N/A   Clear
10:58 AM 58.6 °F - 28.0 °F 31% 30.26 in 10.0 mi North 18.4 mph 28.8 mph N/A   Clear
11:26 AM 59.0 °F - 28.4 °F 31% 30.24 in 10.0 mi NW 24.2 mph 28.8 mph N/A   Clear
11:58 AM 59.2 °F - 28.8 °F 31% 30.27 in 10.0 mi North 21.9 mph 29.9 mph N/A   Clear
12:58 PM 59.7 °F - 27.3 °F 29% 30.27 in 10.0 mi NW 23.0 mph 32.2 mph N/A   Clear
1:02 PM 59.0 °F - 26.6 °F 29% 30.25 in 10.0 mi NW 18.4 mph 32.2 mph N/A   Clear
1:58 PM 59.7 °F - 28.2 °F 30% 30.27 in 10.0 mi NNW 19.6 mph 31.1 mph N/A   Clear
2:15 PM 60.8 °F - 28.4 °F 29% 30.25 in 10.0 mi North 16.1 mph 28.8 mph N/A   Clear
2:58 PM 61.0 °F - 28.4 °F 29% 30.27 in 10.0 mi NNW 16.1 mph 28.8 mph N/A   Clear
3:55 PM 60.8 °F - 26.6 °F 27% 30.24 in 10.0 mi NW 20.7 mph 27.6 mph N/A   Clear
3:58 PM 60.6 °F - 27.7 °F 29% 30.25 in 10.0 mi NW 20.7 mph 27.6 mph N/A   Clear
4:58 PM 60.3 °F - 25.7 °F 27% 30.25 in 10.0 mi NNW 13.8 mph 24.2 mph N/A   Clear
5:58 PM 59.2 °F - 23.5 °F 25% 30.26 in 10.0 mi NW 18.4 mph 26.5 mph N/A   Clear
6:58 PM 57.7 °F - 23.5 °F 27% 30.25 in 10.0 mi North 12.7 mph 23.0 mph N/A   Clear
7:58 PM 55.6 °F - 22.3 °F 27% 30.26 in 10.0 mi NNW 11.5 mph - N/A   Clear
8:58 PM 52.3 °F - 22.3 °F 31% 30.26 in 10.0 mi NNW 9.2 mph - N/A   Clear
9:58 PM 47.3 °F - 23.7 °F 40% 30.27 in 10.0 mi NNW 4.6 mph - N/A   Clear
10:58 PM 40.1 °F 36.1 °F 27.7 °F 61% 30.27 in 10.0 mi WNW 5.8 mph - N/A   Clear
11:58 PM 37.9 °F 35.5 °F 29.3 °F 71% 30.28 in 10.0 mi NW 3.5 mph - N/A   Clear